EHI
0 1 2 2 1 0 0 0 0 0 0 0 0 0 0 0 0 0 0 0 0 0 0 0 0 0 0 0 0 0 0 0 0 0 0 0 0 0
0 1 1 1 0 0 0 0 0 0 0 0 0 0 0 0 0 0 0 0 0 0 0 0 0 0 0 0 0 0 0 0 0 0 0 0 0 0
1 1 0 0 0 0 0 0 0 0 0 0 0 0 0 0 0 0 0 0 0 0 0 0 0 0 0 0 0 0 0 0 0 0 0 0 0 0
0 0 0 0 0 0 0 0 0 0 0 0 0 0 0 0 0 0 0 0 0 0 0 0 0 0 0 0 0 0 0 0 0 0 0 0 0 0
0 0 0 0 0 0 0 0 0 0 0 0 0 0 0 0 0 0 0 0 0 0 0 0 0 0 0 0 0 0 0 0 0 0 0 0 0 0
0 0 0 0 0 0 0 0 0 0 0 0 0 0 0 0 0 0 0 0 0 0 0 0 0 0 0 0 0 0 0 0 0 0 0 0 0 0
0 0 0 0 0 0 0 0 0 0 0 0 0 0 0 0 0 0 0 0 0 0 0 0 0 0 0 0 0 0 0 0 0 0 0 0 0 0
0 0 0 0 0 0 0 0 0 0 0 0 0 0 0 0 0 0 0 0 0 0 0 0 0 0 0 0 0 0 0 0 0 0 0 0 0 0
0 0 0 0 0 0 0 0 0 0 0 0 0 0 0 0 0 0 0 0 0 0 0 0 0 0 0 0 0 0 0 0 0 0 0 0 0 0
0 0 0 0 0 0 0 0 0 0 0 0 0 0 0 0 0 0 0 0 0 0 0 0 0 0 0 0 0 0 0 0 0 0 0 0 0 0
0 0 0 0 0 0 0 0 0 0 0 0 0 0 0 0 0 0 0 0 0 0 0 0 0 0 0 0 0 0 0 0 0 0 0 0 0 0
0 0 0 0 0 0 0 0 0 0 0 0 0 0 0 0 0 0 0 0 0 0 0 0 0 0 0 0 0 0 0 0 0 0 0 0 0 0
0 0 0 0 0 0 0 0 0 0 0 0 0 0 0 0 0 0 0 0 0 0 0 0 0 0 0 0 0 0 0 0 0 0 0 0 0 0
0 0 0 0 0 0 0 0 0 0 0 0 0 0 0 0 0 0 0 0 0 0 0 0 0 0 0 0 0 0 0 0 0 0 0 0 0 0
0 0 0 0 0 0 0 0 0 0 0 0 0 0 0 0 0 0 0 0 0 0 0 0 0 0 0 0 0 0 0 0 0 0 0 0 0 0
0 0 0 0 0 0 0 0 0 0 0 0 0 0 0 0 0 0 0 0 0 0 0 0 0 0 0 0 0 0 0 0 0 0 0 0 0 0
0 0 0 0 0 0 0 0 0 0 0 0 0 0 0 0 0 0 0 0 0 0 0 0 0 0 0 0 0 0 0 0 0 0 0 0 0 0
0 0 0 0 0 0 0 0 0 0 0 0 0 0 0 0 0 0 0 0 0 0 0 0 0 0 0 0 0 0 0 0 0 0 0 0 0 0
0 0 0 0 0 0 0 0 0 0 0 0 0 0 0 0 0 0 0 0 0 0 0 0 0 0 0 0 0 0 0 0 0 0 0 0 0 0
0 0 0 0 0 0 0 0 0 0 0 0 0 0 0 0 0 0 0 0 0 0 0 0 0 0 0 0 0 0 0 0 0 0 0 0 0 0
0 0 0 0 0 0 0 0 0 0 0 0 0 0 0 0 0 0 0 0 0 0 0 0 0 0 0 0 0 0 0 0 0 0 0 0 0 0
0 0 0 0 0 0 0 0 0 0 0 0 0 0 0 0 0 0 0 0 0 0 0 0 0 0 0 0 0 0 0 0 0 0 0 0 0 0
0 0 0 0 0 0 0 0 0 0 0 0 0 0 0 0 0 0 0 0 0 0 0 0 0 0 0 0 0 0 0 0 0 0 0 0 0 0
Wind_Speed
2 1 1 1 1 2 2 3 3 2 3 3 1 2 2 2 3 2 3 5 7 8 8 10 11 11 11 11 12 12 12 12 13 14 15 15 16 16
1 1 1 1 1 1 1 2 2 3 2 2 2 3 3 3 3 2 3 5 7 8 9 9 9 10 10 11 12 12 12 12 12 13 14 15 15 16
1 1 1 1 1 1 1 1 1 2 2 2 2 2 2 2 2 2 2 2 3 5 7 8 8 8 8 10 11 11 11 11 11 12 13 14 14 14
1 1 2 1 1 1 1 1 1 2 2 2 2 2 2 2 1 2 2 2 2 3 4 5 6 6 7 7 7 8 9 10 10 10 11 12 13 13
1 2 2 1 1 1 1 2 2 1 2 2 2 1 2 1 1 2 2 2 2 2 3 3 4 4 5 6 6 7 8 8 9 9 9 10 11 12
1 2 2 2 3 2 2 2 2 1 1 1 1 1 1 2 0 1 2 2 2 3 2 1 2 3 4 5 6 7 7 8 8 8 8 9 9 10
1 1 1 1 2 2 2 2 2 1 1 1 1 1 2 1 1 1 1 2 2 2 1 2 1 2 2 4 6 6 7 8 8 8 8 8 9 9
1 1 1 1 0 1 1 2 3 3 2 2 1 2 3 2 2 1 1 1 2 2 1 3 1 2 3 3 4 5 6 8 8 9 9 9 8 8
1 1 1 1 1 0 1 2 2 2 4 4 3 4 4 3 2 2 2 2 3 3 1 3 2 3 3 3 5 5 6 7 8 8 8 9 9 9
1 1 1 1 1 0 0 1 2 3 3 3 4 5 4 4 4 4 3 2 2 2 2 2 3 3 3 3 5 5 5 6 7 8 9 9 9 9
1 1 0 0 2 0 1 1 3 4 3 2 3 4 4 5 3 1 1 1 2 3 2 2 2 2 2 3 4 6 6 7 7 8 9 9 9 8
1 1 1 1 1 0 0 1 2 4 3 3 3 3 3 3 4 3 3 2 2 2 2 2 2 1 2 3 2 2 3 5 7 8 9 9 9 5
1 1 1 1 1 2 1 1 4 3 2 2 2 3 2 2 2 2 3 3 3 4 3 2 2 2 2 3 2 2 2 2 3 4 7 9 9 7
1 1 1 2 3 3 1 2 3 2 1 1 2 2 2 2 3 3 3 4 4 5 4 3 2 3 3 3 3 2 2 3 3 3 3 5 7 9
1 2 2 3 3 2 2 3 2 0 0 1 2 3 3 3 2 2 3 3 3 4 4 3 3 3 3 4 3 3 2 2 3 3 3 4 4 4
1 2 2 2 2 3 3 2 1 1 1 2 2 3 2 2 2 2 2 2 2 4 3 3 4 4 3 4 4 4 3 3 2 3 3 3 3 4
0 1 1 1 2 2 2 2 2 1 2 2 2 2 2 3 3 2 2 1 2 3 4 3 3 3 4 4 3 4 3 3 3 3 3 3 4 5
2 1 1 1 2 2 2 2 2 2 2 2 2 2 3 3 3 3 2 2 3 3 3 3 2 2 2 2 4 4 3 3 3 3 3 3 4 4
1 1 1 2 2 2 2 2 2 3 2 2 2 3 3 3 3 3 3 3 3 3 4 3 2 2 2 3 4 4 3 3 2 2 3 4 4 4
1 1 2 2 2 2 2 2 2 2 2 2 2 3 3 3 3 3 3 3 4 3 3 3 3 3 4 4 3 3 4 3 3 3 2 2 2 2
1 1 2 2 2 2 2 2 2 2 2 2 3 3 3 3 3 3 3 4 4 3 4 4 5 5 3 1 2 2 2 3 4 3 3 2 2 1
2 2 2 2 2 2 2 2 2 2 2 3 3 3 3 2 3 4 3 3 3 4 4 4 3 2 1 2 3 3 3 2 2 3 3 4 3 3
2 2 2 1 1 1 2 2 1 2 2 2 3 3 3 3 3 3 3 3 3 3 3 3 2 1 2 2 2 2 3 3 1 1 3 4 3 4
Wind_Direction
229 213 191 219 205 202 181 175 178 237 279 276 278 267 257 245 246 236 239 243 237 233 230 230 226 223 221 221 223 224 223 222 221 219 216 219 220 221
202 185 203 222 216 223 201 193 177 185 243 267 259 270 274 274 265 247 247 251 244 238 237 237 232 226 224 225 225 223 221 220 221 221 219 220 220 219
227 194 231 218 204 240 210 189 181 170 223 281 276 289 285 281 298 272 257 242 252 245 239 239 235 231 232 231 227 221 219 219 221 222 222 223 221 219
228 215 246 228 227 234 213 223 218 199 194 256 294 308 287 275 285 295 299 272 257 263 246 239 236 233 230 230 229 223 219 217 220 222 224 225 222 219
212 213 234 214 241 237 217 218 222 217 191 203 269 289 295 305 341 341 340 324 298 281 255 245 242 241 238 234 229 226 221 218 219 219 222 225 223 220
237 225 229 219 223 217 213 218 205 196 187 196 263 295 296 303 343 310 333 340 318 313 315 294 261 247 245 242 234 228 224 221 219 219 220 224 226 221
281 277 259 227 206 202 194 206 186 190 198 207 261 293 296 306 284 265 279 309 312 299 309 297 280 267 258 249 239 232 223 218 219 218 217 219 221 220
250 282 290 271 221 198 197 199 186 185 197 202 234 246 265 258 249 250 250 317 302 299 319 293 271 262 261 244 232 230 226 219 216 217 217 219 221 221
242 251 276 316 324 179 341 342 322 257 212 199 217 241 247 241 218 246 239 222 244 259 262 280 274 259 258 250 232 233 233 224 216 216 218 219 220 220
262 235 222 306 300 206 12 346 321 303 266 228 218 239 243 238 215 217 223 237 265 269 211 249 266 261 266 258 242 228 225 228 225 219 218 220 221 221
310 321 170 218 308 350 97 316 315 309 303 277 249 255 263 258 234 199 216 217 277 282 229 208 251 268 270 264 257 240 234 232 234 231 224 221 222 221
319 311 277 244 295 5 98 242 282 288 306 323 323 312 293 279 247 211 208 213 232 265 244 200 243 256 288 272 256 251 242 241 239 238 232 225 217 208
257 276 285 289 300 291 277 236 254 273 294 293 299 305 312 304 279 233 215 207 217 240 241 195 227 224 228 271 279 248 227 228 229 242 237 227 217 202
230 251 262 282 306 310 295 271 283 298 318 315 308 298 292 286 277 264 250 236 229 237 245 213 218 220 230 247 264 267 243 226 214 226 230 223 222 221
236 254 271 283 305 312 301 300 308 302 257 293 283 274 265 268 280 288 287 275 268 259 253 228 219 226 219 228 241 242 252 246 215 215 217 213 212 206
347 322 322 325 326 308 308 306 285 245 229 243 263 277 289 292 283 273 282 300 305 299 281 253 234 218 230 236 227 237 228 228 223 220 218 221 218 210
104 26 15 357 342 326 315 302 296 293 274 269 270 284 292 290 284 277 264 272 268 280 294 298 275 244 229 222 232 236 232 230 224 212 208 228 232 224
130 118 271 268 263 269 273 282 283 275 269 268 270 264 271 282 287 287 273 254 262 269 274 280 299 327 335 293 234 229 232 235 240 226 210 217 243 238
142 221 240 247 253 252 254 254 257 265 263 261 269 273 270 272 279 285 281 272 270 270 271 267 249 229 261 282 287 235 220 235 231 237 227 219 234 240
208 228 245 251 251 252 252 256 266 275 272 268 269 273 269 267 273 277 278 273 270 272 277 271 247 229 229 242 254 269 236 219 213 231 247 244 250 258
251 248 248 252 255 255 258 259 261 264 274 274 272 274 276 270 270 271 274 279 271 262 264 264 257 254 241 223 270 282 280 251 228 222 223 229 250 256
242 249 258 264 260 262 269 267 267 273 281 281 276 276 281 277 271 272 270 271 270 264 263 269 274 265 210 224 247 258 279 301 292 278 251 217 202 209
234 242 252 261 267 265 270 269 270 282 283 283 282 278 280 280 278 278 277 269 268 270 274 280 285 264 242 233 237 248 263 279 295 321 314 297 258 245